When you browse on this site, cookies collect data to enhance your experience and personalize the content and advertising you see.
Visit our Privacy Policy to learn more. By continuing to use the site, you agree to this use of cookies and data.
  • En España
  • Lista de países
  • Para 7 días
  • Temperatura del agua
  • El tiempo en el mapa
  • Informadores
  • user-avatar
    Iniciar sesión

    Tiempo cada hora Luksor

    Hoy, 17 Febrero, Lunes

    Tiempo Temperatura Precipitaciones Viento Presión Humedad
    00:00 +13°C° 0 mm 3 mps 753 mmHg 54%
    01:00 +13°C° 0 mm 2 mps 753 mmHg 58%
    02:00 +13°C° 0 mm 2 mps 753 mmHg 63%
    03:00 +12°C° 0 mm 2 mps 753 mmHg 67%
    04:00 +12°C° 0 mm 2 mps 753 mmHg 71%
    05:00 +10°C° 0 mm 2 mps 753 mmHg 75%
    06:00 +13°C° 0 mm 2 mps 753 mmHg 70%
    07:00 +14°C° 0 mm 2 mps 754 mmHg 65%
    08:00 +15°C° 0 mm 2 mps 754 mmHg 60%
    09:00 +17°C° 0 mm 3 mps 754 mmHg 53%
    10:00 +19°C° 0 mm 3 mps 754 mmHg 47%
    11:00 +21°C° 0 mm 3 mps 754 mmHg 40%
    12:00 +22°C° 0 mm 3 mps 753 mmHg 36%
    13:00 +24°C° 0 mm 3 mps 752 mmHg 31%
    14:00 +25°C° 0 mm 3 mps 751 mmHg 27%
    15:00 +25°C° 0 mm 4 mps 751 mmHg 27%
    16:00 +25°C° 0 mm 4 mps 751 mmHg 27%
    17:00 +23°C° 0 mm 4 mps 751 mmHg 27%
    18:00 +21°C° 0 mm 4 mps 752 mmHg 32%
    19:00 +20°C° 0 mm 4 mps 752 mmHg 37%
    20:00 +18°C° 0 mm 4 mps 752 mmHg 42%
    21:00 +17°C° 0 mm 4 mps 752 mmHg 45%
    22:00 +16°C° 0 mm 3 mps 753 mmHg 48%
    23:00 +16°C° 0 mm 3 mps 753 mmHg 51%

    Mañana, 18 Febrero, Martes

    Tiempo Temperatura Precipitaciones Viento Presión Humedad
    00:00 +14°C° 0 mm 3 mps 752 mmHg 54%
    01:00 +13°C° 0 mm 3 mps 752 mmHg 57%
    02:00 +13°C° 0 mm 3 mps 752 mmHg 60%
    03:00 +13°C° 0 mm 2 mps 752 mmHg 64%
    04:00 +13°C° 0 mm 2 mps 752 mmHg 67%
    05:00 +12°C° 0 mm 2 mps 753 mmHg 71%
    06:00 +13°C° 0 mm 2 mps 753 mmHg 67%
    07:00 +14°C° 0 mm 2 mps 753 mmHg 63%
    08:00 +14°C° 0 mm 3 mps 754 mmHg 59%
    09:00 +17°C° 0 mm 3 mps 754 mmHg 52%
    10:00 +19°C° 0 mm 4 mps 754 mmHg 45%
    11:00 +21°C° 0 mm 4 mps 753 mmHg 38%
    12:00 +22°C° 0 mm 5 mps 753 mmHg 34%
    13:00 +23°C° 0 mm 5 mps 752 mmHg 29%
    14:00 +24°C° 0 mm 6 mps 752 mmHg 25%
    15:00 +23°C° 0 mm 6 mps 752 mmHg 27%
    16:00 +23°C° 0 mm 7 mps 752 mmHg 29%
    17:00 +22°C° 0 mm 7 mps 752 mmHg 30%
    18:00 +20°C° 0 mm 6 mps 752 mmHg 35%
    19:00 +19°C° 0 mm 5 mps 753 mmHg 39%
    20:00 +17°C° 0 mm 4 mps 754 mmHg 43%
    21:00 +17°C° 0 mm 4 mps 754 mmHg 45%
    22:00 +15°C° 0 mm 4 mps 754 mmHg 47%
    23:00 +16°C° 0 mm 3 mps 754 mmHg 48%

    Pasado mañana, 19 Febrero, Miércoles

    Tiempo Temperatura Precipitaciones Viento Presión Humedad
    00:00 +14°C° 0 mm 3 mps 754 mmHg 50%
    01:00 +14°C° 0 mm 3 mps 754 mmHg 53%
    02:00 +13°C° 0 mm 3 mps 753 mmHg 55%
    03:00 +12°C° 0 mm 3 mps 753 mmHg 55%
    04:00 +12°C° 0 mm 3 mps 753 mmHg 55%
    05:00 +11°C° 0 mm 3 mps 753 mmHg 55%
    06:00 +12°C° 0 mm 3 mps 754 mmHg 51%
    07:00 +13°C° 0 mm 4 mps 754 mmHg 46%
    08:00 +14°C° 0 mm 5 mps 755 mmHg 42%
    09:00 +16°C° 0 mm 6 mps 755 mmHg 38%
    10:00 +17°C° 0 mm 7 mps 754 mmHg 35%
    11:00 +20°C° 0 mm 8 mps 754 mmHg 31%
    12:00 +21°C° 0 mm 8 mps 754 mmHg 29%
    13:00 +22°C° 0 mm 8 mps 754 mmHg 26%
    14:00 +22°C° 0 mm 8 mps 753 mmHg 24%
    15:00 +22°C° 0 mm 8 mps 753 mmHg 25%
    16:00 +22°C° 0 mm 8 mps 753 mmHg 26%
    17:00 +21°C° 0 mm 8 mps 753 mmHg 27%
    18:00 +18°C° 0 mm 7 mps 754 mmHg 32%
    19:00 +17°C° 0 mm 5 mps 754 mmHg 36%
    20:00 +15°C° 0 mm 4 mps 755 mmHg 40%
    21:00 +14°C° 0 mm 4 mps 755 mmHg 42%
    22:00 +13°C° 0 mm 3 mps 755 mmHg 45%
    23:00 +13°C° 0 mm 3 mps 756 mmHg 48%

    20 Febrero, Jueves

    Tiempo Temperatura Precipitaciones Viento Presión Humedad
    00:00 +12°C° 0 mm 3 mps 756 mmHg 51%
    01:00 +12°C° 0 mm 3 mps 756 mmHg 54%
    02:00 +12°C° 0 mm 2 mps 756 mmHg 57%
    03:00 +10°C° 0 mm 2 mps 756 mmHg 60%
    04:00 +10°C° 0 mm 2 mps 756 mmHg 64%
    05:00 +9°C° 0 mm 2 mps 756 mmHg 68%
    06:00 +10°C° 0 mm 2 mps 756 mmHg 64%
    07:00 +13°C° 0 mm 2 mps 756 mmHg 61%
    08:00 +14°C° 0 mm 2 mps 757 mmHg 57%
    09:00 +16°C° 0 mm 3 mps 757 mmHg 50%
    10:00 +18°C° 0 mm 3 mps 757 mmHg 43%
    11:00 +20°C° 0 mm 4 mps 757 mmHg 36%
    12:00 +21°C° 0 mm 4 mps 756 mmHg 31%
    13:00 +22°C° 0 mm 4 mps 755 mmHg 26%
    14:00 +24°C° 0 mm 3 mps 754 mmHg 22%
    15:00 +24°C° 0 mm 3 mps 754 mmHg 21%
    16:00 +24°C° 0 mm 3 mps 754 mmHg 21%
    17:00 +24°C° 0 mm 3 mps 754 mmHg 20%
    18:00 +21°C° 0 mm 3 mps 754 mmHg 25%
    19:00 +18°C° 0 mm 3 mps 754 mmHg 30%
    20:00 +16°C° 0 mm 3 mps 755 mmHg 34%
    21:00 +15°C° 0 mm 2 mps 755 mmHg 39%
    22:00 +14°C° 0 mm 2 mps 755 mmHg 43%
    23:00 +13°C° 0 mm 1 mps 755 mmHg 47%

    21 Febrero, Viernes

    Tiempo Temperatura Precipitaciones Viento Presión Humedad
    00:00 +13°C° 0 mm 1 mps 755 mmHg 50%
    01:00 +12°C° 0 mm 2 mps 755 mmHg 52%
    02:00 +12°C° 0 mm 2 mps 754 mmHg 55%
    03:00 +12°C° 0 mm 2 mps 754 mmHg 57%
    04:00 +11°C° 0 mm 1 mps 754 mmHg 60%
    05:00 +11°C° 0 mm 1 mps 754 mmHg 63%
    06:00 +12°C° 0 mm 1 mps 755 mmHg 56%
    07:00 +14°C° 0 mm 1 mps 755 mmHg 49%
    08:00 +16°C° 0 mm 1 mps 755 mmHg 43%
    15:00 +26°C° 0 mm 4 mps 753 mmHg 17%
    16:00 +25°C° 0 mm 4 mps 753 mmHg 17%
    17:00 +25°C° 0 mm 4 mps 753 mmHg 17%
    18:00 +22°C° 0 mm 4 mps 753 mmHg 20%
    19:00 +20°C° 0 mm 4 mps 753 mmHg 22%
    20:00 +17°C° 0 mm 5 mps 753 mmHg 25%
    21:00 +17°C° 0 mm 4 mps 754 mmHg 28%
    22:00 +16°C° 0 mm 3 mps 754 mmHg 31%
    23:00 +14°C° 0 mm 3 mps 754 mmHg 34%

    22 Febrero, Sábado

    Tiempo Temperatura Precipitaciones Viento Presión Humedad
    00:00 +14°C° 0 mm 3 mps 754 mmHg 36%
    01:00 +13°C° 0 mm 3 mps 754 mmHg 37%
    02:00 +13°C° 0 mm 3 mps 754 mmHg 39%
    03:00 +12°C° 0 mm 3 mps 754 mmHg 43%
    04:00 +11°C° 0 mm 3 mps 754 mmHg 47%
    05:00 +10°C° 0 mm 3 mps 755 mmHg 51%
    06:00 +11°C° 0 mm 3 mps 755 mmHg 51%
    07:00 +12°C° 0 mm 3 mps 755 mmHg 51%
    08:00 +13°C° 0 mm 3 mps 756 mmHg 51%
    09:00 +15°C° 0 mm 4 mps 756 mmHg 44%
    10:00 +17°C° 0 mm 6 mps 756 mmHg 37%
    11:00 +20°C° 0 mm 7 mps 756 mmHg 30%
    12:00 +21°C° 0 mm 7 mps 755 mmHg 26%
    13:00 +22°C° 0 mm 7 mps 754 mmHg 23%
    14:00 +23°C° 0 mm 6 mps 754 mmHg 19%
    15:00 +23°C° 0 mm 7 mps 754 mmHg 21%
    16:00 +22°C° 0 mm 7 mps 754 mmHg 23%
    17:00 +22°C° 0 mm 7 mps 754 mmHg 24%
    18:00 +20°C° 0 mm 6 mps 754 mmHg 29%
    19:00 +17°C° 0 mm 5 mps 755 mmHg 34%
    20:00 +15°C° 0 mm 4 mps 755 mmHg 39%
    21:00 +14°C° 0 mm 4 mps 756 mmHg 41%
    22:00 +14°C° 0 mm 4 mps 756 mmHg 44%
    23:00 +13°C° 0 mm 4 mps 756 mmHg 46%
    Mostrar más